Location: City of Moscow
(46.7306°N, 116.9989°W)
Time: 02:35:25
(UTC+00:00)

Cosmos 1626 Rocket - Pass Details

Date: 16 March 2026
Orbit: 596 x 624 km, 82.5° (Epoch: 13 April)

Event Time Altitude Azimuth Distance (km) Brightness Sun altitude
Rises 03:02:05 0° 240° (WSW) 2,900 7.8 -12.4°
Reaches altitude 10° 03:05:34 10° 270° (W) 2,000 7.6 -13.0°
Maximum altitude 03:07:32 13° 296° (WNW) 1,829 7.2 -13.3°
Drops below altitude 10° 03:09:30 10° 322° (NW) 2,005 6.9 -13.7°
Sets 03:13:01 0° 352° (N) 2,915 7.3 -14.3°
